Shannon, Ireland

8:54 AM IST on May 27, 2017 (GMT +0100)
Shannon

Weather History for EINN - March, 2013

Change the Weather History Date:

Thursday, March 21, 2013

  Actual Average Record
Temperature  
Mean Temperature 41 °F -  
Max Temperature 46 °F 54 °F 59 °F (2002)
Min Temperature 36 °F 40 °F 32 °F (2007)
Degree Days  
Heating Degree Days 24    
Moisture  
Dew Point 38 °F    
Average Humidity 84    
Maximum Humidity 100    
Minimum Humidity 70    
Precipitation  
Precipitation 0.02 in 0.08 in - ()
Sea Level Pressure  
Sea Level Pressure 29.54 in    
Wind  
Wind Speed 19 mph ()    
Max Wind Speed 32 mph    
Max Gust Speed 48 mph    
Visibility 6.3 miles    
Events Rain    
Averages and records for this station are not official NWS values.
T = Trace of Precipitation, MM = Missing Value Source: Averaged Metar Reports

Daily Weather History Graph

Daily Weather History Graph

Search for Another Location

Airport or City:

Trip Planner

Search our weather history database for the weather conditions in past years. The results will help you decide how hot, cold, wet, or windy it might be!

Date:

Astronomy

Mar. 21, 2013 Rise Set
Actual Time 6:35 AM GMT 6:50 PM GMT
Civil Twilight 6:01 AM GMT 7:25 PM GMT
Nautical Twilight 5:20 AM GMT 8:06 PM GMT
Astronomical Twilight 4:38 AM GMT 8:48 PM GMT
Moon 12:29 PM GMT (3/21) 3:28 AM GMT (3/21)
Length of Visible Light 13h 23m
Length of Day
12h 15m
Waxing Gibbous, 67% of the Moon is Illuminated
Mar 21
Waxing Gibbous
Mar 27
Full
Apr 3
Last Quarter
Apr 10
New
Apr 18
First Quarter

Hourly Weather History & Observations

Time (GMT) Temp. Windchill Dew Point Humidity Pressure Visibility Wind Dir Wind Speed Gust Speed Precip Events Conditions
12:00 AM 37 °F - 33 °F 79% 29.78 in 12 mi East 11.2 mph - -   Mostly Cloudy
12:00 AM 37.4 °F 30.3 °F 32.0 °F 81% 29.77 in - East 10.4 mph - N/A   Clear
12:30 AM 37.4 °F 29.3 °F 32.0 °F 81% 29.74 in 6.2 mi East 12.7 mph - N/A   Mostly Cloudy
1:00 AM 39.2 °F 30.8 °F 33.8 °F 81% 29.74 in 6.2 mi East 15.0 mph - N/A   Mostly Cloudy
1:30 AM 39.2 °F 31.2 °F 33.8 °F 81% 29.74 in - East 13.8 mph - N/A   Clear
2:00 AM 39.2 °F 30.5 °F 35.6 °F 87% 29.71 in - East 16.1 mph - N/A   Clear
2:30 AM 41.0 °F 33.5 °F 35.6 °F 81% 29.71 in 6.2 mi East 13.8 mph - N/A   Mostly Cloudy
3:00 AM 41.0 °F 32.5 °F 35.6 °F 81% 29.71 in 6.2 mi East 17.3 mph - N/A   Mostly Cloudy
3:30 AM 41.0 °F 32.8 °F 35.6 °F 81% 29.68 in 6.2 mi East 16.1 mph - N/A   Mostly Cloudy
4:00 AM 41.0 °F 32.5 °F 35.6 °F 81% 29.68 in 6.2 mi East 17.3 mph - N/A   Mostly Cloudy
4:30 AM 41.0 °F 32.8 °F 37.4 °F 87% 29.68 in 6.2 mi East 16.1 mph - N/A Rain Light Rain
5:00 AM 41.0 °F 33.5 °F 37.4 °F 87% 29.68 in 6.2 mi East 13.8 mph - N/A   Mostly Cloudy
5:30 AM 42.8 °F 34.8 °F 35.6 °F 76% 29.65 in 6.2 mi East 17.3 mph - N/A   Mostly Cloudy
6:00 AM 43 °F - 36 °F 70% 29.67 in 12 mi East 20.1 mph - -   Partly Cloudy
6:00 AM 42.8 °F 34.0 °F 37.4 °F 81% 29.65 in 6.2 mi East 20.7 mph - N/A   Mostly Cloudy
6:30 AM 42.8 °F 34.8 °F 37.4 °F 81% 29.65 in 6.2 mi East 17.3 mph - N/A   Mostly Cloudy
7:00 AM 42.8 °F 34.0 °F 37.4 °F 81% 29.65 in 6.2 mi ESE 20.7 mph - N/A   Mostly Cloudy
7:30 AM 42.8 °F 34.0 °F 37.4 °F 81% 29.65 in 6.2 mi East 20.7 mph - N/A   Mostly Cloudy
8:00 AM 42.8 °F 33.1 °F 39.2 °F 87% 29.62 in 3.1 mi East 25.3 mph - N/A   Mostly Cloudy
8:30 AM 42.8 °F 33.1 °F 39.2 °F 87% 29.62 in 3.1 mi East 25.3 mph - N/A   Mostly Cloudy
9:00 AM 42.8 °F 33.5 °F 39.2 °F 87% 29.62 in 4.3 mi East 23.0 mph 35.7 mph N/A   Mostly Cloudy
9:30 AM 44.6 °F 35.3 °F 37.4 °F 76% 29.59 in 6.2 mi ESE 26.5 mph 38.0 mph N/A   Mostly Cloudy
10:00 AM 42.8 °F 32.5 °F 37.4 °F 81% 29.62 in 6.2 mi ESE 28.8 mph 41.4 mph N/A   Mostly Cloudy
10:30 AM 42.8 °F 32.5 °F 37.4 °F 81% 29.62 in 6.2 mi ESE 28.8 mph 43.7 mph N/A   Mostly Cloudy
11:00 AM 42.8 °F 32.7 °F 37.4 °F 81% 29.62 in 6.2 mi East 27.6 mph 41.4 mph N/A Rain Light Rain
11:30 AM 42.8 °F 32.7 °F 39.2 °F 87% 29.59 in 6.2 mi East 27.6 mph 40.3 mph N/A Rain Light Rain
12:00 PM 43 °F - 39 °F 80% 29.60 in 7 mi East 26.8 mph - - Rain Light Rain
12:00 PM 42.8 °F 32.9 °F 39.2 °F 87% 29.59 in 6.2 mi East 26.5 mph 39.1 mph N/A   Mostly Cloudy
12:30 PM 42.8 °F 33.3 °F 39.2 °F 87% 29.56 in 6.2 mi East 24.2 mph 39.1 mph N/A   Mostly Cloudy
1:00 PM 42.8 °F 33.1 °F 39.2 °F 87% 29.56 in 6.2 mi East 25.3 mph - N/A Rain Light Rain
1:30 PM 44.6 °F 35.7 °F 39.2 °F 81% 29.53 in 6.2 mi East 24.2 mph 36.8 mph N/A Rain Light Rain
2:00 PM 42.8 °F 32.5 °F 39.2 °F 87% 29.53 in 6.2 mi East 28.8 mph 43.7 mph N/A   Mostly Cloudy
2:30 PM 44.6 °F 34.9 °F 39.2 °F 81% 29.50 in 6.2 mi East 28.8 mph 47.2 mph N/A   Mostly Cloudy
3:00 PM 44.6 °F 34.7 °F 39.2 °F 81% 29.50 in 6.2 mi East 29.9 mph 43.7 mph N/A   Mostly Cloudy
3:30 PM 44.6 °F 34.6 °F 39.2 °F 81% 29.47 in 6.2 mi East 31.1 mph 42.6 mph N/A   Mostly Cloudy
4:00 PM 44.6 °F 34.7 °F 39.2 °F 81% 29.47 in 6.2 mi East 29.9 mph 44.9 mph N/A   Mostly Cloudy
4:30 PM 44.6 °F 35.3 °F 39.2 °F 81% 29.44 in 6.2 mi East 26.5 mph 41.4 mph N/A   Mostly Cloudy
5:00 PM 44.6 °F 35.3 °F 39.2 °F 81% 29.42 in 6.2 mi East 26.5 mph 40.3 mph N/A   Mostly Cloudy
5:30 PM 44.6 °F 34.7 °F 39.2 °F 81% 29.42 in 6.2 mi East 29.9 mph 42.6 mph N/A   Mostly Cloudy
6:00 PM 44 °F - 40 °F 83% 29.40 in 12 mi East 29.1 mph - - Rain Light Rain
6:00 PM 44.6 °F 34.7 °F 41.0 °F 87% 29.39 in 6.2 mi East 29.9 mph 46.0 mph N/A Rain Light Rain
6:30 PM 44.6 °F 34.6 °F 41.0 °F 87% 29.39 in 6.2 mi East 31.1 mph 44.9 mph N/A Rain Light Rain
7:00 PM 44.6 °F 34.6 °F 41.0 °F 87% 29.36 in 6.2 mi East 31.1 mph 46.0 mph N/A Rain Light Rain
7:30 PM 44.6 °F 34.6 °F 41.0 °F 87% 29.36 in 6.2 mi East 31.1 mph 43.7 mph N/A Rain Light Rain
8:00 PM 44.6 °F 35.3 °F 41.0 °F 87% 29.33 in 6.2 mi East 26.5 mph 39.1 mph N/A Rain Light Rain
8:30 PM 44.6 °F 34.6 °F 41.0 °F 87% 29.30 in 6.2 mi East 31.1 mph 48.3 mph N/A Rain Light Rain
9:00 PM 44.6 °F 34.4 °F 41.0 °F 87% 29.30 in 5.0 mi East 32.2 mph 47.2 mph N/A Rain Rain
9:30 PM 44.6 °F 34.7 °F 41.0 °F 87% 29.30 in 6.2 mi East 29.9 mph 43.7 mph N/A Rain Light Rain
10:00 PM 44.6 °F 34.7 °F 42.8 °F 93% 29.30 in 5.6 mi East 29.9 mph 42.6 mph N/A Rain Light Rain
10:30 PM 44.6 °F 34.6 °F 42.8 °F 93% 29.27 in 6.2 mi ESE 31.1 mph 43.7 mph N/A Rain Light Rain
11:00 PM 44.6 °F 35.7 °F 42.8 °F 93% 29.30 in 6.2 mi ESE 24.2 mph 35.7 mph N/A   Light Drizzle
11:30 PM 44.6 °F 35.9 °F 44.6 °F 100% 29.30 in 4.3 mi East 23.0 mph 34.5 mph N/A Rain Light Rain